User: anonymous   Login
Location: Unspecified
(0.0000°N, 0.0000°E)
Time: 14:59:28
(UTC+00:00)
Language:

RISAT 1 - Orbit

View from above orbital plane
View from above orbital plane
View from above satellite
View from above satellite

Ground track
Ground track

The orbit data is extracted from the following two-line orbital elements,

1 38248U 12017A   17019.09112355  .00000609  00000-0  42615-4 0  9997
2 38248  97.5732  28.6754 0003970 169.9459 275.9386 15.08926607260758
Epoch (UTC): 19 January 2017 02:11:13
Eccentricity: 0.0003970
inclination: 97.5732°
perigee height: 537 km
apogee height: 542 km
right ascension of ascending node: 28.6754°
argument of perigee: 169.9459°
revolutions per day: 15.08926607
mean anomaly at epoch: 275.9386°
orbit number at epoch: 26075

The dashed part of the orbit path shows where the satellite is in the earth's shadow,  

DLR